Location: Haliburton Scout Reserve
(45.0900°N, 78.3200°W)
Time: 05:39:26
(UTC-04:00)

IDEFIX/ARIANE 42P - Visible Passes

Search period start: 26 April 2018 00:00
Search period end: 06 May 2018 00:00
Orbit: 785 x 803 km, 98.3° (Epoch: 25 April)

Date Brightness Start Highest point End Pass type
(mag) Time Alt. Az. Time Alt. Az. Time Alt. Az.
26 Apr 4.7 05:25:32 10° NE 05:30:03 29° E 05:34:33 10° SSE visible
27 Apr 5.3 04:58:11 10° NE 05:01:25 16° E 05:04:40 10° SE visible
30 Apr 5.1 05:12:10 10° NE 05:16:13 22° E 05:20:16 10° SE visible
01 May 5.5 04:45:26 10° ENE 04:47:33 12° E 04:49:39 10° ESE visible
03 May 4.6 05:26:24 10° NE 05:30:59 30° E 05:35:34 10° SSE visible
04 May 5.3 04:58:58 10° NE 05:02:22 17° E 05:05:45 10° SE visible
